Terminal Aerodrome Forecast
Issued by NWS

Home | Current Version | Previous Version | Graphics & Text | Print | Product List | Glossary On
Versions: 1 2 3 4 5 6 7 8 9 10 11 12 13 14 15 16 17
000
FTUS43 KIWX 230100 AAA
TAFSBN
TAF AMD
KSBN 230114Z 2301/2324 12014KT 5SM -SHRA OVC050
     FM230700 13012KT 2SM -RA BR OVC008
     FM231000 16012KT 2SM BR OVC004
     FM231600 20010KT 5SM HZ OVC015=

USA.gov is the U.S. government's official web portal to all federal, state and local government web resources and services.